KMKG

Muskegon County Airport

Airport
ICAO code
KMKG
Summary
ICAO Region
NAM
ICAO Territory
Location

Muskegon, Michigan,

Coordinates
43° 10' 10" N , 86° 14' 17" W
KCC
Airport CFIT
Altimeter Temperature Error Correction
Airport WX
Lake Effect Snow
Metar
KMKG 151155Z 00000KT 10SM -RA FEW006 SCT065 BKN110 22/20 A2985 RMK AO2 SLP105 P0001 60010 70011 T02170200 10217 20211 50009

Description

Muskegon County Airport is a public use airport located 7 km south of the central business district of Muskegon, in Muskegon County, Michigan.

Climatology

Humid Continental climate (Köppen climate classification Dfb) - Variable weather patterns and a large seasonal temperature variance. Summers are often warm and humid with frequent thunderstorms and winters can be very cold with frequent snowfall and persistent snow cover.

Runways

Designator Length Width Surface Rops
14/32 1524 46 ASP Yes/Yes
6/24 1982 46 ASP Yes/Yes

Airport map

Aerial View

SKYbrary Partners:

Safety knowledge contributed by: